Location: Six Mile Lake
(44.9000°N, 79.7170°W)
Time: 22:21:58
(UTC-04:00)

BEESAT - Pass Details

Date: 02 July 2022
Orbit: 700 x 706 km, 98.6° (Epoch: 11 August)

Event Time Altitude Azimuth Distance (km) Brightness Sun altitude
Rises 23:33:08 0° 354° (N) 3,105 ? -17.6°
Reaches altitude 10° 23:36:58 10° 323° (NW) 2,182 ? -17.9°
Maximum altitude 23:38:31 12° 304° (WNW) 2,077 ? -18.1°
Drops below altitude 10° 23:40:04 10° 284° (WNW) 2,179 ? -18.2°
Sets 23:43:54 0° 253° (WSW) 3,093 ? -18.5°
